Find Starlink 3500

NORAD ID: 51740 Int'l Des: 2022-016 Owner: SPXS Country: US Constellation: starlink operational
LEOCIRCULAR

实时位置

正在加载3D地球...

关于 Starlink 3500

正在加载描述...

即将过境

Passes for default location (London). Set your location on the main map for personalized predictions.

高度历史

Loading altitude history...

两行轨道根数

1 51740U 22016AC 26106.85056715 -.00000204 00000-0 52562-5 0 9992
2 51740 53.2164 147.8078 0001301 76.9467 283.1670 15.08841227229322
Epoch: Apr 16, 2026 • Age: 13 hours

当前状态

高度 545.2 km
速度 7.60 km/s
星下点 52.24°N, 97.5°W
发射日期 Feb 21, 2022
运行时间 4.1 years
类型 internet

技术详情

分类 Payload
质量 297.00 kg
干质量 275.00 kg
总质量 297.00 kg
长度 0.20 m
直径 2.80 m
跨度 9.00 m
形状 Box + pan
制造商 SPXS
平台类型 Starlink
阶段状态 In Orbit
所有者/国家 SPXS/US

Most Searched